Index of /20260422/WXO-DD/model_gdps/15km/00/210
Name Last modified Size Description
Parent Directory -
20260422T00Z_MSC_GDPS_AbsoluteVorticity_IsbL-0200_LatLon0.15_PT210H.grib2 2026-04-22 04:47 1.5M
20260422T00Z_MSC_GDPS_AbsoluteVorticity_IsbL-0250_LatLon0.15_PT210H.grib2 2026-04-22 04:47 1.3M
20260422T00Z_MSC_GDPS_AbsoluteVorticity_IsbL-0500_LatLon0.15_PT210H.grib2 2026-04-22 04:47 1.4M
20260422T00Z_MSC_GDPS_AbsoluteVorticity_IsbL-0700_LatLon0.15_PT210H.grib2 2026-04-22 04:47 1.6M
20260422T00Z_MSC_GDPS_AbsoluteVorticity_IsbL-0850_LatLon0.15_PT210H.grib2 2026-04-22 04:47 1.6M
20260422T00Z_MSC_GDPS_AirTemp-Max_AGL-2m_LatLon0.15_PT210H.grib2 2026-04-22 04:47 746K
20260422T00Z_MSC_GDPS_AirTemp-Min_AGL-2m_LatLon0.15_PT210H.grib2 2026-04-22 04:47 793K
20260422T00Z_MSC_GDPS_AirTemp_AGL-120m_LatLon0.15_PT210H.grib2 2026-04-22 04:47 911K
20260422T00Z_MSC_GDPS_AirTemp_AGL-2m_LatLon0.15_PT210H.grib2 2026-04-22 04:47 1.0M
20260422T00Z_MSC_GDPS_AirTemp_AGL-40m_LatLon0.15_PT210H.grib2 2026-04-22 04:47 814K
20260422T00Z_MSC_GDPS_AirTemp_AGL-80m_LatLon0.15_PT210H.grib2 2026-04-22 04:47 802K
20260422T00Z_MSC_GDPS_AirTemp_IsbL-0001_LatLon0.15_PT210H.grib2 2026-04-22 04:47 712K
20260422T00Z_MSC_GDPS_AirTemp_IsbL-0005_LatLon0.15_PT210H.grib2 2026-04-22 04:47 688K
20260422T00Z_MSC_GDPS_AirTemp_IsbL-0010_LatLon0.15_PT210H.grib2 2026-04-22 04:47 758K
20260422T00Z_MSC_GDPS_AirTemp_IsbL-0020_LatLon0.15_PT210H.grib2 2026-04-22 04:47 789K
20260422T00Z_MSC_GDPS_AirTemp_IsbL-0030_LatLon0.15_PT210H.grib2 2026-04-22 04:47 752K
20260422T00Z_MSC_GDPS_AirTemp_IsbL-0050_LatLon0.15_PT210H.grib2 2026-04-22 04:47 805K
20260422T00Z_MSC_GDPS_AirTemp_IsbL-0100_LatLon0.15_PT210H.grib2 2026-04-22 04:47 964K
20260422T00Z_MSC_GDPS_AirTemp_IsbL-0150_LatLon0.15_PT210H.grib2 2026-04-22 04:47 1.0M
20260422T00Z_MSC_GDPS_AirTemp_IsbL-0175_LatLon0.15_PT210H.grib2 2026-04-22 04:47 968K
20260422T00Z_MSC_GDPS_AirTemp_IsbL-0200_LatLon0.15_PT210H.grib2 2026-04-22 04:47 1.0M
20260422T00Z_MSC_GDPS_AirTemp_IsbL-0225_LatLon0.15_PT210H.grib2 2026-04-22 04:47 1.0M
20260422T00Z_MSC_GDPS_AirTemp_IsbL-0250_LatLon0.15_PT210H.grib2 2026-04-22 04:47 1.0M
20260422T00Z_MSC_GDPS_AirTemp_IsbL-0275_LatLon0.15_PT210H.grib2 2026-04-22 04:47 1.0M
20260422T00Z_MSC_GDPS_AirTemp_IsbL-0300_LatLon0.15_PT210H.grib2 2026-04-22 04:47 1.0M
20260422T00Z_MSC_GDPS_AirTemp_IsbL-0350_LatLon0.15_PT210H.grib2 2026-04-22 04:47 936K
20260422T00Z_MSC_GDPS_AirTemp_IsbL-0400_LatLon0.15_PT210H.grib2 2026-04-22 04:47 947K
20260422T00Z_MSC_GDPS_AirTemp_IsbL-0450_LatLon0.15_PT210H.grib2 2026-04-22 04:47 966K
20260422T00Z_MSC_GDPS_AirTemp_IsbL-0500_LatLon0.15_PT210H.grib2 2026-04-22 04:47 1.0M
20260422T00Z_MSC_GDPS_AirTemp_IsbL-0550_LatLon0.15_PT210H.grib2 2026-04-22 04:47 805K
20260422T00Z_MSC_GDPS_AirTemp_IsbL-0600_LatLon0.15_PT210H.grib2 2026-04-22 04:47 900K
20260422T00Z_MSC_GDPS_AirTemp_IsbL-0650_LatLon0.15_PT210H.grib2 2026-04-22 04:47 930K
20260422T00Z_MSC_GDPS_AirTemp_IsbL-0700_LatLon0.15_PT210H.grib2 2026-04-22 04:47 964K
20260422T00Z_MSC_GDPS_AirTemp_IsbL-0750_LatLon0.15_PT210H.grib2 2026-04-22 04:47 1.0M
20260422T00Z_MSC_GDPS_AirTemp_IsbL-0800_LatLon0.15_PT210H.grib2 2026-04-22 04:47 1.1M
20260422T00Z_MSC_GDPS_AirTemp_IsbL-0850_LatLon0.15_PT210H.grib2 2026-04-22 04:47 1.1M
20260422T00Z_MSC_GDPS_AirTemp_IsbL-0875_LatLon0.15_PT210H.grib2 2026-04-22 04:47 1.2M
20260422T00Z_MSC_GDPS_AirTemp_IsbL-0900_LatLon0.15_PT210H.grib2 2026-04-22 04:47 1.2M
20260422T00Z_MSC_GDPS_AirTemp_IsbL-0925_LatLon0.15_PT210H.grib2 2026-04-22 04:47 1.1M
20260422T00Z_MSC_GDPS_AirTemp_IsbL-0950_LatLon0.15_PT210H.grib2 2026-04-22 04:47 1.2M
20260422T00Z_MSC_GDPS_AirTemp_IsbL-0970_LatLon0.15_PT210H.grib2 2026-04-22 04:47 1.2M
20260422T00Z_MSC_GDPS_AirTemp_IsbL-0985_LatLon0.15_PT210H.grib2 2026-04-22 04:47 1.1M
20260422T00Z_MSC_GDPS_AirTemp_IsbL-1000_LatLon0.15_PT210H.grib2 2026-04-22 04:47 1.1M
20260422T00Z_MSC_GDPS_AirTemp_IsbL-1015_LatLon0.15_PT210H.grib2 2026-04-22 04:47 1.1M
20260422T00Z_MSC_GDPS_Albedo_Sfc_LatLon0.15_PT210H.grib2 2026-04-22 04:47 247K
20260422T00Z_MSC_GDPS_CAPE_Sfc_LatLon0.15_PT210H.grib2 2026-04-22 04:47 3.7M
20260422T00Z_MSC_GDPS_CIN_Sfc_LatLon0.15_PT210H.grib2 2026-04-22 04:47 2.8M
20260422T00Z_MSC_GDPS_CloudWater_EAtm_LatLon0.15_PT210H.grib2 2026-04-22 04:47 538K
20260422T00Z_MSC_GDPS_ConvectivePrecip-Accum_Sfc_LatLon0.15_PT210H.grib2 2026-04-22 04:47 3.9M
20260422T00Z_MSC_GDPS_DewPointDepression_AGL-2m_LatLon0.15_PT210H.grib2 2026-04-22 04:47 762K
20260422T00Z_MSC_GDPS_DewPointDepression_IsbL-0010_LatLon0.15_PT210H.grib2 2026-04-22 04:47 68K
20260422T00Z_MSC_GDPS_DewPointDepression_IsbL-0020_LatLon0.15_PT210H.grib2 2026-04-22 04:47 58K
20260422T00Z_MSC_GDPS_DewPointDepression_IsbL-0030_LatLon0.15_PT210H.grib2 2026-04-22 04:47 68K
20260422T00Z_MSC_GDPS_DewPointDepression_IsbL-0050_LatLon0.15_PT210H.grib2 2026-04-22 04:47 367K
20260422T00Z_MSC_GDPS_DewPointDepression_IsbL-0100_LatLon0.15_PT210H.grib2 2026-04-22 04:47 396K
20260422T00Z_MSC_GDPS_DewPointDepression_IsbL-0150_LatLon0.15_PT210H.grib2 2026-04-22 04:47 460K
20260422T00Z_MSC_GDPS_DewPointDepression_IsbL-0175_LatLon0.15_PT210H.grib2 2026-04-22 04:47 558K
20260422T00Z_MSC_GDPS_DewPointDepression_IsbL-0200_LatLon0.15_PT210H.grib2 2026-04-22 04:47 677K
20260422T00Z_MSC_GDPS_DewPointDepression_IsbL-0225_LatLon0.15_PT210H.grib2 2026-04-22 04:47 797K
20260422T00Z_MSC_GDPS_DewPointDepression_IsbL-0250_LatLon0.15_PT210H.grib2 2026-04-22 04:47 873K
20260422T00Z_MSC_GDPS_DewPointDepression_IsbL-0275_LatLon0.15_PT210H.grib2 2026-04-22 04:47 880K
20260422T00Z_MSC_GDPS_DewPointDepression_IsbL-0300_LatLon0.15_PT210H.grib2 2026-04-22 04:47 915K
20260422T00Z_MSC_GDPS_DewPointDepression_IsbL-0350_LatLon0.15_PT210H.grib2 2026-04-22 04:47 938K
20260422T00Z_MSC_GDPS_DewPointDepression_IsbL-0400_LatLon0.15_PT210H.grib2 2026-04-22 04:47 1.0M
20260422T00Z_MSC_GDPS_DewPointDepression_IsbL-0450_LatLon0.15_PT210H.grib2 2026-04-22 04:47 1.0M
20260422T00Z_MSC_GDPS_DewPointDepression_IsbL-0500_LatLon0.15_PT210H.grib2 2026-04-22 04:47 1.0M
20260422T00Z_MSC_GDPS_DewPointDepression_IsbL-0550_LatLon0.15_PT210H.grib2 2026-04-22 04:47 1.0M
20260422T00Z_MSC_GDPS_DewPointDepression_IsbL-0600_LatLon0.15_PT210H.grib2 2026-04-22 04:47 1.0M
20260422T00Z_MSC_GDPS_DewPointDepression_IsbL-0650_LatLon0.15_PT210H.grib2 2026-04-22 04:47 1.1M
20260422T00Z_MSC_GDPS_DewPointDepression_IsbL-0700_LatLon0.15_PT210H.grib2 2026-04-22 04:47 1.1M
20260422T00Z_MSC_GDPS_DewPointDepression_IsbL-0750_LatLon0.15_PT210H.grib2 2026-04-22 04:47 1.1M
20260422T00Z_MSC_GDPS_DewPointDepression_IsbL-0800_LatLon0.15_PT210H.grib2 2026-04-22 04:47 1.2M
20260422T00Z_MSC_GDPS_DewPointDepression_IsbL-0850_LatLon0.15_PT210H.grib2 2026-04-22 04:47 1.2M
20260422T00Z_MSC_GDPS_DewPointDepression_IsbL-0875_LatLon0.15_PT210H.grib2 2026-04-22 04:47 1.1M
20260422T00Z_MSC_GDPS_DewPointDepression_IsbL-0900_LatLon0.15_PT210H.grib2 2026-04-22 04:47 1.1M
20260422T00Z_MSC_GDPS_DewPointDepression_IsbL-0925_LatLon0.15_PT210H.grib2 2026-04-22 04:47 1.0M
20260422T00Z_MSC_GDPS_DewPointDepression_IsbL-0950_LatLon0.15_PT210H.grib2 2026-04-22 04:47 1.0M
20260422T00Z_MSC_GDPS_DewPointDepression_IsbL-0970_LatLon0.15_PT210H.grib2 2026-04-22 04:47 1.0M
20260422T00Z_MSC_GDPS_DewPointDepression_IsbL-0985_LatLon0.15_PT210H.grib2 2026-04-22 04:47 1.0M
20260422T00Z_MSC_GDPS_DewPointDepression_IsbL-1000_LatLon0.15_PT210H.grib2 2026-04-22 04:47 1.0M
20260422T00Z_MSC_GDPS_DewPointDepression_IsbL-1015_LatLon0.15_PT210H.grib2 2026-04-22 04:47 914K
20260422T00Z_MSC_GDPS_DewPoint_AGL-2m_LatLon0.15_PT210H.grib2 2026-04-22 04:47 610K
20260422T00Z_MSC_GDPS_DownwardLongwaveRadiationFlux-Accum_Sfc_LatLon0.15_PT210H.grib2 2026-04-22 04:47 719K
20260422T00Z_MSC_GDPS_DownwardShortwaveRadiationFlux-Accum_NTAtm_LatLon0.15_PT210H.grib2 2026-04-22 04:47 264K
20260422T00Z_MSC_GDPS_DownwardShortwaveRadiationFlux-Accum_Sfc_LatLon0.15_PT210H.grib2 2026-04-22 04:47 908K
20260422T00Z_MSC_GDPS_FreezingRain-Accum12h_Sfc_LatLon0.15_PT210H.grib2 2026-04-22 04:47 134K
20260422T00Z_MSC_GDPS_FreezingRain-Accum24h_Sfc_LatLon0.15_PT210H.grib2 2026-04-22 04:47 203K
20260422T00Z_MSC_GDPS_FreezingRain-Accum6h_Sfc_LatLon0.15_PT210H.grib2 2026-04-22 04:47 105K
20260422T00Z_MSC_GDPS_FreezingRain-Accum_Sfc_LatLon0.15_PT210H.grib2 2026-04-22 04:47 533K
20260422T00Z_MSC_GDPS_GeopotentialHeight_IsbL-0001_LatLon0.15_PT210H.grib2 2026-04-22 04:47 385K
20260422T00Z_MSC_GDPS_GeopotentialHeight_IsbL-0005_LatLon0.15_PT210H.grib2 2026-04-22 04:47 499K
20260422T00Z_MSC_GDPS_GeopotentialHeight_IsbL-0010_LatLon0.15_PT210H.grib2 2026-04-22 04:47 486K
20260422T00Z_MSC_GDPS_GeopotentialHeight_IsbL-0020_LatLon0.15_PT210H.grib2 2026-04-22 04:47 423K
20260422T00Z_MSC_GDPS_GeopotentialHeight_IsbL-0030_LatLon0.15_PT210H.grib2 2026-04-22 04:47 579K
20260422T00Z_MSC_GDPS_GeopotentialHeight_IsbL-0050_LatLon0.15_PT210H.grib2 2026-04-22 04:47 582K
20260422T00Z_MSC_GDPS_GeopotentialHeight_IsbL-0100_LatLon0.15_PT210H.grib2 2026-04-22 04:47 621K
20260422T00Z_MSC_GDPS_GeopotentialHeight_IsbL-0150_LatLon0.15_PT210H.grib2 2026-04-22 04:47 640K
20260422T00Z_MSC_GDPS_GeopotentialHeight_IsbL-0175_LatLon0.15_PT210H.grib2 2026-04-22 04:47 644K
20260422T00Z_MSC_GDPS_GeopotentialHeight_IsbL-0200_LatLon0.15_PT210H.grib2 2026-04-22 04:47 648K
20260422T00Z_MSC_GDPS_GeopotentialHeight_IsbL-0225_LatLon0.15_PT210H.grib2 2026-04-22 04:47 645K
20260422T00Z_MSC_GDPS_GeopotentialHeight_IsbL-0250_LatLon0.15_PT210H.grib2 2026-04-22 04:47 653K
20260422T00Z_MSC_GDPS_GeopotentialHeight_IsbL-0275_LatLon0.15_PT210H.grib2 2026-04-22 04:47 650K
20260422T00Z_MSC_GDPS_GeopotentialHeight_IsbL-0300_LatLon0.15_PT210H.grib2 2026-04-22 04:47 641K
20260422T00Z_MSC_GDPS_GeopotentialHeight_IsbL-0350_LatLon0.15_PT210H.grib2 2026-04-22 04:47 638K
20260422T00Z_MSC_GDPS_GeopotentialHeight_IsbL-0400_LatLon0.15_PT210H.grib2 2026-04-22 04:47 628K
20260422T00Z_MSC_GDPS_GeopotentialHeight_IsbL-0450_LatLon0.15_PT210H.grib2 2026-04-22 04:47 618K
20260422T00Z_MSC_GDPS_GeopotentialHeight_IsbL-0500_LatLon0.15_PT210H.grib2 2026-04-22 04:47 539K
20260422T00Z_MSC_GDPS_GeopotentialHeight_IsbL-0550_LatLon0.15_PT210H.grib2 2026-04-22 04:47 532K
20260422T00Z_MSC_GDPS_GeopotentialHeight_IsbL-0600_LatLon0.15_PT210H.grib2 2026-04-22 04:47 527K
20260422T00Z_MSC_GDPS_GeopotentialHeight_IsbL-0650_LatLon0.15_PT210H.grib2 2026-04-22 04:47 695K
20260422T00Z_MSC_GDPS_GeopotentialHeight_IsbL-0700_LatLon0.15_PT210H.grib2 2026-04-22 04:47 692K
20260422T00Z_MSC_GDPS_GeopotentialHeight_IsbL-0750_LatLon0.15_PT210H.grib2 2026-04-22 04:47 702K
20260422T00Z_MSC_GDPS_GeopotentialHeight_IsbL-0800_LatLon0.15_PT210H.grib2 2026-04-22 04:47 712K
20260422T00Z_MSC_GDPS_GeopotentialHeight_IsbL-0850_LatLon0.15_PT210H.grib2 2026-04-22 04:47 716K
20260422T00Z_MSC_GDPS_GeopotentialHeight_IsbL-0875_LatLon0.15_PT210H.grib2 2026-04-22 04:47 725K
20260422T00Z_MSC_GDPS_GeopotentialHeight_IsbL-0900_LatLon0.15_PT210H.grib2 2026-04-22 04:47 732K
20260422T00Z_MSC_GDPS_GeopotentialHeight_IsbL-0925_LatLon0.15_PT210H.grib2 2026-04-22 04:47 740K
20260422T00Z_MSC_GDPS_GeopotentialHeight_IsbL-0950_LatLon0.15_PT210H.grib2 2026-04-22 04:47 745K
20260422T00Z_MSC_GDPS_GeopotentialHeight_IsbL-0970_LatLon0.15_PT210H.grib2 2026-04-22 04:47 758K
20260422T00Z_MSC_GDPS_GeopotentialHeight_IsbL-0985_LatLon0.15_PT210H.grib2 2026-04-22 04:47 775K
20260422T00Z_MSC_GDPS_GeopotentialHeight_IsbL-1000_LatLon0.15_PT210H.grib2 2026-04-22 04:47 797K
20260422T00Z_MSC_GDPS_GeopotentialHeight_IsbL-1015_LatLon0.15_PT210H.grib2 2026-04-22 04:47 820K
20260422T00Z_MSC_GDPS_Humidex_Sfc_LatLon0.15_PT210H.grib2 2026-04-22 04:47 5.3M
20260422T00Z_MSC_GDPS_IcePellets-Accum12h_Sfc_LatLon0.15_PT210H.grib2 2026-04-22 04:47 10K
20260422T00Z_MSC_GDPS_IcePellets-Accum24h_Sfc_LatLon0.15_PT210H.grib2 2026-04-22 04:47 22K
20260422T00Z_MSC_GDPS_IcePellets-Accum6h_Sfc_LatLon0.15_PT210H.grib2 2026-04-22 04:47 5.6K
20260422T00Z_MSC_GDPS_IcePellets-Accum_Sfc_LatLon0.15_PT210H.grib2 2026-04-22 04:47 201K
20260422T00Z_MSC_GDPS_KIndex_Sfc_LatLon0.15_PT210H.grib2 2026-04-22 04:47 6.5M
20260422T00Z_MSC_GDPS_LatentHeatNetFlux_Sfc_LatLon0.15_PT210H.grib2 2026-04-22 04:47 522K
20260422T00Z_MSC_GDPS_LiftedIndex-MU-VT_IsbL-0500_LatLon0.15_PT210H.grib2 2026-04-22 04:47 5.4M
20260422T00Z_MSC_GDPS_NetLongwaveRadiationFlux-Accum_Sfc_LatLon0.15_PT210H.grib2 2026-04-22 04:47 903K
20260422T00Z_MSC_GDPS_NetShortwaveRadiationFlux-Accum_Sfc_LatLon0.15_PT210H.grib2 2026-04-22 04:47 887K
20260422T00Z_MSC_GDPS_O3MixingRatio_LatLon0.15_PT210H.grib2 2026-04-22 05:00 1.9M
20260422T00Z_MSC_GDPS_O3_EAtm_LatLon0.15_PT210H.grib2 2026-04-22 05:00 2.4M
20260422T00Z_MSC_GDPS_PlanetaryBoundaryLayerHeight_Sfc_LatLon0.15_PT210H.grib2 2026-04-22 04:47 2.5M
20260422T00Z_MSC_GDPS_Precip-Accum12h_Sfc_LatLon0.15_PT210H.grib2 2026-04-22 04:47 4.4M
20260422T00Z_MSC_GDPS_Precip-Accum24h_Sfc_LatLon0.15_PT210H.grib2 2026-04-22 04:47 4.7M
20260422T00Z_MSC_GDPS_Precip-Accum6h_Sfc_LatLon0.15_PT210H.grib2 2026-04-22 04:47 4.0M
20260422T00Z_MSC_GDPS_Precip-Accum_Sfc_LatLon0.15_PT210H.grib2 2026-04-22 04:47 5.1M
20260422T00Z_MSC_GDPS_PrecipRate_Sfc_LatLon0.15_PT210H.grib2 2026-04-22 04:47 3.3M
20260422T00Z_MSC_GDPS_PrecipType-Instant_Sfc_LatLon0.15_PT210H.grib2 2026-04-22 04:47 1.6M
20260422T00Z_MSC_GDPS_Pressure_MSL_LatLon0.15_PT210H.grib2 2026-04-22 04:47 832K
20260422T00Z_MSC_GDPS_Pressure_PVU-1.5_LatLon0.15_PT210H.grib2 2026-04-22 04:47 5.8M
20260422T00Z_MSC_GDPS_Pressure_PVU-1_LatLon0.15_PT210H.grib2 2026-04-22 04:47 6.0M
20260422T00Z_MSC_GDPS_Pressure_PVU-2_LatLon0.15_PT210H.grib2 2026-04-22 04:47 5.7M
20260422T00Z_MSC_GDPS_Pressure_Sfc_LatLon0.15_PT210H.grib2 2026-04-22 04:47 1.1M
20260422T00Z_MSC_GDPS_RadiativeTemp_Sfc_LatLon0.15_PT210H.grib2 2026-04-22 04:47 491K
20260422T00Z_MSC_GDPS_Rain-Accum12h_Sfc_LatLon0.15_PT210H.grib2 2026-04-22 04:47 3.0M
20260422T00Z_MSC_GDPS_Rain-Accum24h_Sfc_LatLon0.15_PT210H.grib2 2026-04-22 04:47 3.3M
20260422T00Z_MSC_GDPS_Rain-Accum6h_Sfc_LatLon0.15_PT210H.grib2 2026-04-22 04:47 2.5M
20260422T00Z_MSC_GDPS_Rain-Accum_Sfc_LatLon0.15_PT210H.grib2 2026-04-22 04:47 4.3M
20260422T00Z_MSC_GDPS_RelativeHumidity_AGL-2m_LatLon0.15_PT210H.grib2 2026-04-22 04:47 1.1M
20260422T00Z_MSC_GDPS_RelativeHumidity_IsbL-0010_LatLon0.15_PT210H.grib2 2026-04-22 04:47 159K
20260422T00Z_MSC_GDPS_RelativeHumidity_IsbL-0020_LatLon0.15_PT210H.grib2 2026-04-22 04:47 206K
20260422T00Z_MSC_GDPS_RelativeHumidity_IsbL-0030_LatLon0.15_PT210H.grib2 2026-04-22 04:47 253K
20260422T00Z_MSC_GDPS_RelativeHumidity_IsbL-0050_LatLon0.15_PT210H.grib2 2026-04-22 04:47 412K
20260422T00Z_MSC_GDPS_RelativeHumidity_IsbL-0100_LatLon0.15_PT210H.grib2 2026-04-22 04:47 487K
20260422T00Z_MSC_GDPS_RelativeHumidity_IsbL-0150_LatLon0.15_PT210H.grib2 2026-04-22 04:47 662K
20260422T00Z_MSC_GDPS_RelativeHumidity_IsbL-0175_LatLon0.15_PT210H.grib2 2026-04-22 04:47 783K
20260422T00Z_MSC_GDPS_RelativeHumidity_IsbL-0200_LatLon0.15_PT210H.grib2 2026-04-22 04:47 706K
20260422T00Z_MSC_GDPS_RelativeHumidity_IsbL-0225_LatLon0.15_PT210H.grib2 2026-04-22 04:47 800K
20260422T00Z_MSC_GDPS_RelativeHumidity_IsbL-0250_LatLon0.15_PT210H.grib2 2026-04-22 04:47 874K
20260422T00Z_MSC_GDPS_RelativeHumidity_IsbL-0275_LatLon0.15_PT210H.grib2 2026-04-22 04:47 892K
20260422T00Z_MSC_GDPS_RelativeHumidity_IsbL-0300_LatLon0.15_PT210H.grib2 2026-04-22 04:47 932K
20260422T00Z_MSC_GDPS_RelativeHumidity_IsbL-0350_LatLon0.15_PT210H.grib2 2026-04-22 04:47 943K
20260422T00Z_MSC_GDPS_RelativeHumidity_IsbL-0400_LatLon0.15_PT210H.grib2 2026-04-22 04:47 964K
20260422T00Z_MSC_GDPS_RelativeHumidity_IsbL-0450_LatLon0.15_PT210H.grib2 2026-04-22 04:47 1.0M
20260422T00Z_MSC_GDPS_RelativeHumidity_IsbL-0500_LatLon0.15_PT210H.grib2 2026-04-22 04:47 1.0M
20260422T00Z_MSC_GDPS_RelativeHumidity_IsbL-0550_LatLon0.15_PT210H.grib2 2026-04-22 04:47 1.0M
20260422T00Z_MSC_GDPS_RelativeHumidity_IsbL-0600_LatLon0.15_PT210H.grib2 2026-04-22 04:47 1.0M
20260422T00Z_MSC_GDPS_RelativeHumidity_IsbL-0650_LatLon0.15_PT210H.grib2 2026-04-22 04:47 1.1M
20260422T00Z_MSC_GDPS_RelativeHumidity_IsbL-0700_LatLon0.15_PT210H.grib2 2026-04-22 04:47 1.1M
20260422T00Z_MSC_GDPS_RelativeHumidity_IsbL-0750_LatLon0.15_PT210H.grib2 2026-04-22 04:47 1.2M
20260422T00Z_MSC_GDPS_RelativeHumidity_IsbL-0800_LatLon0.15_PT210H.grib2 2026-04-22 04:47 1.2M
20260422T00Z_MSC_GDPS_RelativeHumidity_IsbL-0850_LatLon0.15_PT210H.grib2 2026-04-22 04:47 1.3M
20260422T00Z_MSC_GDPS_RelativeHumidity_IsbL-0875_LatLon0.15_PT210H.grib2 2026-04-22 04:47 1.3M
20260422T00Z_MSC_GDPS_RelativeHumidity_IsbL-0900_LatLon0.15_PT210H.grib2 2026-04-22 04:47 1.2M
20260422T00Z_MSC_GDPS_RelativeHumidity_IsbL-0925_LatLon0.15_PT210H.grib2 2026-04-22 04:47 1.2M
20260422T00Z_MSC_GDPS_RelativeHumidity_IsbL-0950_LatLon0.15_PT210H.grib2 2026-04-22 04:47 1.2M
20260422T00Z_MSC_GDPS_RelativeHumidity_IsbL-0970_LatLon0.15_PT210H.grib2 2026-04-22 04:47 1.2M
20260422T00Z_MSC_GDPS_RelativeHumidity_IsbL-0985_LatLon0.15_PT210H.grib2 2026-04-22 04:47 1.2M
20260422T00Z_MSC_GDPS_RelativeHumidity_IsbL-1000_LatLon0.15_PT210H.grib2 2026-04-22 04:47 1.1M
20260422T00Z_MSC_GDPS_RelativeHumidity_IsbL-1015_LatLon0.15_PT210H.grib2 2026-04-22 04:47 1.0M
20260422T00Z_MSC_GDPS_RelativeVorticity_IsbL-0200_LatLon0.15_PT210H.grib2 2026-04-22 04:47 1.5M
20260422T00Z_MSC_GDPS_RelativeVorticity_IsbL-0250_LatLon0.15_PT210H.grib2 2026-04-22 04:47 1.3M
20260422T00Z_MSC_GDPS_RelativeVorticity_IsbL-0500_LatLon0.15_PT210H.grib2 2026-04-22 04:47 1.4M
20260422T00Z_MSC_GDPS_RelativeVorticity_IsbL-0700_LatLon0.15_PT210H.grib2 2026-04-22 04:47 1.6M
20260422T00Z_MSC_GDPS_RelativeVorticity_IsbL-0850_LatLon0.15_PT210H.grib2 2026-04-22 04:47 1.6M
20260422T00Z_MSC_GDPS_Runoff-Accum_Sfc_LatLon0.15_PT210H.grib2 2026-04-22 04:47 129K
20260422T00Z_MSC_GDPS_SensibleHeatNetFlux_Sfc_LatLon0.15_PT210H.grib2 2026-04-22 04:47 628K
20260422T00Z_MSC_GDPS_ShowalterIndex_IsbL-0500_LatLon0.15_PT210H.grib2 2026-04-22 04:47 6.2M
20260422T00Z_MSC_GDPS_Snow-Accum12h_Sfc_LatLon0.15_PT210H.grib2 2026-04-22 04:47 1.5M
20260422T00Z_MSC_GDPS_Snow-Accum24h_Sfc_LatLon0.15_PT210H.grib2 2026-04-22 04:47 1.6M
20260422T00Z_MSC_GDPS_Snow-Accum6h_Sfc_LatLon0.15_PT210H.grib2 2026-04-22 04:47 1.5M
20260422T00Z_MSC_GDPS_Snow-Accum_Sfc_LatLon0.15_PT210H.grib2 2026-04-22 04:47 2.0M
20260422T00Z_MSC_GDPS_SnowDensity_Sfc_LatLon0.15_PT210H.grib2 2026-04-22 04:47 277K
20260422T00Z_MSC_GDPS_SnowDepth_Sfc_LatLon0.15_PT210H.grib2 2026-04-22 04:47 1.8M
20260422T00Z_MSC_GDPS_SoilTemp_DBS-0to10cm_LatLon0.15_PT210H.grib2 2026-04-22 04:47 513K
20260422T00Z_MSC_GDPS_SoilTemp_Sfc_LatLon0.15_PT210H.grib2 2026-04-22 04:47 583K
20260422T00Z_MSC_GDPS_SoilVolumetricIceContent_Sfc_LatLon0.15_PT210H.grib2 2026-04-22 04:47 208K
20260422T00Z_MSC_GDPS_SoilVolumetricWaterContent_DBS-0to10cm_LatLon0.15_PT210H.grib2 2026-04-22 04:47 583K
20260422T00Z_MSC_GDPS_SoilVolumetricWaterContent_DBS-0to1cm_LatLon0.15_PT210H.grib2 2026-04-22 04:47 655K
20260422T00Z_MSC_GDPS_SpecificHumidity_AGL-120m_LatLon0.15_PT210H.grib2 2026-04-22 04:47 1.1M
20260422T00Z_MSC_GDPS_SpecificHumidity_AGL-2m_LatLon0.15_PT210H.grib2 2026-04-22 04:47 1.2M
20260422T00Z_MSC_GDPS_SpecificHumidity_AGL-40m_LatLon0.15_PT210H.grib2 2026-04-22 04:47 1.1M
20260422T00Z_MSC_GDPS_SpecificHumidity_AGL-80m_LatLon0.15_PT210H.grib2 2026-04-22 04:47 1.1M
20260422T00Z_MSC_GDPS_SpecificHumidity_IsbL-0001_LatLon0.15_PT210H.grib2 2026-04-22 04:47 1.1M
20260422T00Z_MSC_GDPS_SpecificHumidity_IsbL-0005_LatLon0.15_PT210H.grib2 2026-04-22 04:47 1.3M
20260422T00Z_MSC_GDPS_SpecificHumidity_IsbL-0010_LatLon0.15_PT210H.grib2 2026-04-22 04:47 1.1M
20260422T00Z_MSC_GDPS_SpecificHumidity_IsbL-0020_LatLon0.15_PT210H.grib2 2026-04-22 04:47 1.2M
20260422T00Z_MSC_GDPS_SpecificHumidity_IsbL-0030_LatLon0.15_PT210H.grib2 2026-04-22 04:47 1.4M
20260422T00Z_MSC_GDPS_SpecificHumidity_IsbL-0050_LatLon0.15_PT210H.grib2 2026-04-22 04:47 1.2M
20260422T00Z_MSC_GDPS_SpecificHumidity_IsbL-0100_LatLon0.15_PT210H.grib2 2026-04-22 04:47 1.3M
20260422T00Z_MSC_GDPS_SpecificHumidity_IsbL-0150_LatLon0.15_PT210H.grib2 2026-04-22 04:47 1.2M
20260422T00Z_MSC_GDPS_SpecificHumidity_IsbL-0175_LatLon0.15_PT210H.grib2 2026-04-22 04:47 1.2M
20260422T00Z_MSC_GDPS_SpecificHumidity_IsbL-0200_LatLon0.15_PT210H.grib2 2026-04-22 04:47 1.3M
20260422T00Z_MSC_GDPS_SpecificHumidity_IsbL-0225_LatLon0.15_PT210H.grib2 2026-04-22 04:47 1.3M
20260422T00Z_MSC_GDPS_SpecificHumidity_IsbL-0250_LatLon0.15_PT210H.grib2 2026-04-22 04:47 1.4M
20260422T00Z_MSC_GDPS_SpecificHumidity_IsbL-0275_LatLon0.15_PT210H.grib2 2026-04-22 04:47 1.3M
20260422T00Z_MSC_GDPS_SpecificHumidity_IsbL-0300_LatLon0.15_PT210H.grib2 2026-04-22 04:47 1.2M
20260422T00Z_MSC_GDPS_SpecificHumidity_IsbL-0350_LatLon0.15_PT210H.grib2 2026-04-22 04:47 1.2M
20260422T00Z_MSC_GDPS_SpecificHumidity_IsbL-0400_LatLon0.15_PT210H.grib2 2026-04-22 04:47 1.4M
20260422T00Z_MSC_GDPS_SpecificHumidity_IsbL-0450_LatLon0.15_PT210H.grib2 2026-04-22 04:47 1.6M
20260422T00Z_MSC_GDPS_SpecificHumidity_IsbL-0500_LatLon0.15_PT210H.grib2 2026-04-22 04:47 1.4M
20260422T00Z_MSC_GDPS_SpecificHumidity_IsbL-0550_LatLon0.15_PT210H.grib2 2026-04-22 04:47 1.6M
20260422T00Z_MSC_GDPS_SpecificHumidity_IsbL-0600_LatLon0.15_PT210H.grib2 2026-04-22 04:47 1.7M
20260422T00Z_MSC_GDPS_SpecificHumidity_IsbL-0650_LatLon0.15_PT210H.grib2 2026-04-22 04:47 1.5M
20260422T00Z_MSC_GDPS_SpecificHumidity_IsbL-0700_LatLon0.15_PT210H.grib2 2026-04-22 04:47 1.6M
20260422T00Z_MSC_GDPS_SpecificHumidity_IsbL-0750_LatLon0.15_PT210H.grib2 2026-04-22 04:47 1.7M
20260422T00Z_MSC_GDPS_SpecificHumidity_IsbL-0800_LatLon0.15_PT210H.grib2 2026-04-22 04:47 1.8M
20260422T00Z_MSC_GDPS_SpecificHumidity_IsbL-0850_LatLon0.15_PT210H.grib2 2026-04-22 04:47 1.9M
20260422T00Z_MSC_GDPS_SpecificHumidity_IsbL-0875_LatLon0.15_PT210H.grib2 2026-04-22 04:47 1.9M
20260422T00Z_MSC_GDPS_SpecificHumidity_IsbL-0900_LatLon0.15_PT210H.grib2 2026-04-22 04:47 1.9M
20260422T00Z_MSC_GDPS_SpecificHumidity_IsbL-0925_LatLon0.15_PT210H.grib2 2026-04-22 04:47 1.9M
20260422T00Z_MSC_GDPS_SpecificHumidity_IsbL-0950_LatLon0.15_PT210H.grib2 2026-04-22 04:47 1.6M
20260422T00Z_MSC_GDPS_SpecificHumidity_IsbL-0970_LatLon0.15_PT210H.grib2 2026-04-22 04:47 1.5M
20260422T00Z_MSC_GDPS_SpecificHumidity_IsbL-0985_LatLon0.15_PT210H.grib2 2026-04-22 04:47 1.5M
20260422T00Z_MSC_GDPS_SpecificHumidity_IsbL-1000_LatLon0.15_PT210H.grib2 2026-04-22 04:47 1.5M
20260422T00Z_MSC_GDPS_SpecificHumidity_IsbL-1015_LatLon0.15_PT210H.grib2 2026-04-22 04:47 1.5M
20260422T00Z_MSC_GDPS_SpecificHumidity_Sfc_LatLon0.15_PT210H.grib2 2026-04-22 04:47 668K
20260422T00Z_MSC_GDPS_Thickness_IsbL-0850to0700_LatLon0.15_PT210H.grib2 2026-04-22 04:47 473K
20260422T00Z_MSC_GDPS_Thickness_IsbL-1000to0500_LatLon0.15_PT210H.grib2 2026-04-22 04:47 379K
20260422T00Z_MSC_GDPS_Thickness_IsbL-1000to0850_LatLon0.15_PT210H.grib2 2026-04-22 04:47 497K
20260422T00Z_MSC_GDPS_TotalCloudCover_Sfc_LatLon0.15_PT210H.grib2 2026-04-22 04:47 830K
20260422T00Z_MSC_GDPS_TotalTotalsIndex_Sfc_LatLon0.15_PT210H.grib2 2026-04-22 04:47 6.2M
20260422T00Z_MSC_GDPS_UVIndex-ClearSky-Max24h_Sfc_LatLon0.15_PT210H.grib2 2026-04-22 05:00 2.2M
20260422T00Z_MSC_GDPS_UVIndex-ClearSky_Sfc_LatLon0.15_PT210H.grib2 2026-04-22 05:00 1.0M
20260422T00Z_MSC_GDPS_UVIndex-Max24h_Sfc_LatLon0.15_PT210H.grib2 2026-04-22 05:00 3.2M
20260422T00Z_MSC_GDPS_UVIndex_Sfc_LatLon0.15_PT210H.grib2 2026-04-22 05:00 1.5M
20260422T00Z_MSC_GDPS_UpwardLongwaveRadiationFlux_NTAtm_LatLon0.15_PT210H.grib2 2026-04-22 04:47 1.1M
20260422T00Z_MSC_GDPS_VerticalVelocity_IsbL-0200_LatLon0.15_PT210H.grib2 2026-04-22 04:47 1.2M
20260422T00Z_MSC_GDPS_VerticalVelocity_IsbL-0250_LatLon0.15_PT210H.grib2 2026-04-22 04:47 1.1M
20260422T00Z_MSC_GDPS_VerticalVelocity_IsbL-0500_LatLon0.15_PT210H.grib2 2026-04-22 04:47 1.3M
20260422T00Z_MSC_GDPS_VerticalVelocity_IsbL-0600_LatLon0.15_PT210H.grib2 2026-04-22 04:47 1.4M
20260422T00Z_MSC_GDPS_VerticalVelocity_IsbL-0700_LatLon0.15_PT210H.grib2 2026-04-22 04:47 1.1M
20260422T00Z_MSC_GDPS_VerticalVelocity_IsbL-0850_LatLon0.15_PT210H.grib2 2026-04-22 04:47 1.4M
20260422T00Z_MSC_GDPS_WindChill_Sfc_LatLon0.15_PT210H.grib2 2026-04-22 04:47 5.3M
20260422T00Z_MSC_GDPS_WindDir_AGL-10m_LatLon0.15_PT210H.grib2 2026-04-22 04:47 1.3M
20260422T00Z_MSC_GDPS_WindDir_AGL-120m_LatLon0.15_PT210H.grib2 2026-04-22 04:47 1.4M
20260422T00Z_MSC_GDPS_WindDir_AGL-40m_LatLon0.15_PT210H.grib2 2026-04-22 04:47 1.4M
20260422T00Z_MSC_GDPS_WindDir_AGL-80m_LatLon0.15_PT210H.grib2 2026-04-22 04:47 1.4M
20260422T00Z_MSC_GDPS_WindDir_IsbL-0001_LatLon0.15_PT210H.grib2 2026-04-22 04:47 685K
20260422T00Z_MSC_GDPS_WindDir_IsbL-0005_LatLon0.15_PT210H.grib2 2026-04-22 04:47 801K
20260422T00Z_MSC_GDPS_WindDir_IsbL-0010_LatLon0.15_PT210H.grib2 2026-04-22 04:47 827K
20260422T00Z_MSC_GDPS_WindDir_IsbL-0020_LatLon0.15_PT210H.grib2 2026-04-22 04:47 923K
20260422T00Z_MSC_GDPS_WindDir_IsbL-0030_LatLon0.15_PT210H.grib2 2026-04-22 04:47 900K
20260422T00Z_MSC_GDPS_WindDir_IsbL-0050_LatLon0.15_PT210H.grib2 2026-04-22 04:47 943K
20260422T00Z_MSC_GDPS_WindDir_IsbL-0100_LatLon0.15_PT210H.grib2 2026-04-22 04:47 1.0M
20260422T00Z_MSC_GDPS_WindDir_IsbL-0150_LatLon0.15_PT210H.grib2 2026-04-22 04:47 1.0M
20260422T00Z_MSC_GDPS_WindDir_IsbL-0175_LatLon0.15_PT210H.grib2 2026-04-22 04:47 1.0M
20260422T00Z_MSC_GDPS_WindDir_IsbL-0200_LatLon0.15_PT210H.grib2 2026-04-22 04:47 1.1M
20260422T00Z_MSC_GDPS_WindDir_IsbL-0225_LatLon0.15_PT210H.grib2 2026-04-22 04:47 1.1M
20260422T00Z_MSC_GDPS_WindDir_IsbL-0250_LatLon0.15_PT210H.grib2 2026-04-22 04:47 1.1M
20260422T00Z_MSC_GDPS_WindDir_IsbL-0275_LatLon0.15_PT210H.grib2 2026-04-22 04:47 1.2M
20260422T00Z_MSC_GDPS_WindDir_IsbL-0300_LatLon0.15_PT210H.grib2 2026-04-22 04:47 1.2M
20260422T00Z_MSC_GDPS_WindDir_IsbL-0350_LatLon0.15_PT210H.grib2 2026-04-22 04:47 1.2M
20260422T00Z_MSC_GDPS_WindDir_IsbL-0400_LatLon0.15_PT210H.grib2 2026-04-22 04:47 1.2M
20260422T00Z_MSC_GDPS_WindDir_IsbL-0450_LatLon0.15_PT210H.grib2 2026-04-22 04:47 1.3M
20260422T00Z_MSC_GDPS_WindDir_IsbL-0500_LatLon0.15_PT210H.grib2 2026-04-22 04:47 1.3M
20260422T00Z_MSC_GDPS_WindDir_IsbL-0550_LatLon0.15_PT210H.grib2 2026-04-22 04:47 1.4M
20260422T00Z_MSC_GDPS_WindDir_IsbL-0600_LatLon0.15_PT210H.grib2 2026-04-22 04:47 1.4M
20260422T00Z_MSC_GDPS_WindDir_IsbL-0650_LatLon0.15_PT210H.grib2 2026-04-22 04:47 1.5M
20260422T00Z_MSC_GDPS_WindDir_IsbL-0700_LatLon0.15_PT210H.grib2 2026-04-22 04:47 1.6M
20260422T00Z_MSC_GDPS_WindDir_IsbL-0750_LatLon0.15_PT210H.grib2 2026-04-22 04:47 1.7M
20260422T00Z_MSC_GDPS_WindDir_IsbL-0800_LatLon0.15_PT210H.grib2 2026-04-22 04:47 1.8M
20260422T00Z_MSC_GDPS_WindDir_IsbL-0850_LatLon0.15_PT210H.grib2 2026-04-22 04:47 1.9M
20260422T00Z_MSC_GDPS_WindDir_IsbL-0875_LatLon0.15_PT210H.grib2 2026-04-22 04:47 2.0M
20260422T00Z_MSC_GDPS_WindDir_IsbL-0900_LatLon0.15_PT210H.grib2 2026-04-22 04:47 2.0M
20260422T00Z_MSC_GDPS_WindDir_IsbL-0925_LatLon0.15_PT210H.grib2 2026-04-22 04:47 2.0M
20260422T00Z_MSC_GDPS_WindDir_IsbL-0950_LatLon0.15_PT210H.grib2 2026-04-22 04:47 2.0M
20260422T00Z_MSC_GDPS_WindDir_IsbL-0970_LatLon0.15_PT210H.grib2 2026-04-22 04:47 2.0M
20260422T00Z_MSC_GDPS_WindDir_IsbL-0985_LatLon0.15_PT210H.grib2 2026-04-22 04:47 2.0M
20260422T00Z_MSC_GDPS_WindDir_IsbL-1000_LatLon0.15_PT210H.grib2 2026-04-22 04:47 2.1M
20260422T00Z_MSC_GDPS_WindDir_IsbL-1015_LatLon0.15_PT210H.grib2 2026-04-22 04:47 2.0M
20260422T00Z_MSC_GDPS_WindGust-Max_AGL-10m_LatLon0.15_PT210H.grib2 2026-04-22 04:47 1.8M
20260422T00Z_MSC_GDPS_WindGust-Min_AGL-10m_LatLon0.15_PT210H.grib2 2026-04-22 04:47 2.2M
20260422T00Z_MSC_GDPS_WindGust_AGL-10m_LatLon0.15_PT210H.grib2 2026-04-22 04:47 2.1M
20260422T00Z_MSC_GDPS_WindSpeed_AGL-10m_LatLon0.15_PT210H.grib2 2026-04-22 04:47 1.1M
20260422T00Z_MSC_GDPS_WindSpeed_AGL-120m_LatLon0.15_PT210H.grib2 2026-04-22 04:47 1.3M
20260422T00Z_MSC_GDPS_WindSpeed_AGL-40m_LatLon0.15_PT210H.grib2 2026-04-22 04:47 1.3M
20260422T00Z_MSC_GDPS_WindSpeed_AGL-80m_LatLon0.15_PT210H.grib2 2026-04-22 04:47 1.3M
20260422T00Z_MSC_GDPS_WindSpeed_IsbL-0001_LatLon0.15_PT210H.grib2 2026-04-22 04:47 639K
20260422T00Z_MSC_GDPS_WindSpeed_IsbL-0005_LatLon0.15_PT210H.grib2 2026-04-22 04:47 604K
20260422T00Z_MSC_GDPS_WindSpeed_IsbL-0010_LatLon0.15_PT210H.grib2 2026-04-22 04:47 621K
20260422T00Z_MSC_GDPS_WindSpeed_IsbL-0020_LatLon0.15_PT210H.grib2 2026-04-22 04:47 848K
20260422T00Z_MSC_GDPS_WindSpeed_IsbL-0030_LatLon0.15_PT210H.grib2 2026-04-22 04:47 851K
20260422T00Z_MSC_GDPS_WindSpeed_IsbL-0050_LatLon0.15_PT210H.grib2 2026-04-22 04:47 902K
20260422T00Z_MSC_GDPS_WindSpeed_IsbL-0100_LatLon0.15_PT210H.grib2 2026-04-22 04:47 1.1M
20260422T00Z_MSC_GDPS_WindSpeed_IsbL-0150_LatLon0.15_PT210H.grib2 2026-04-22 04:47 1.0M
20260422T00Z_MSC_GDPS_WindSpeed_IsbL-0175_LatLon0.15_PT210H.grib2 2026-04-22 04:47 1.0M
20260422T00Z_MSC_GDPS_WindSpeed_IsbL-0200_LatLon0.15_PT210H.grib2 2026-04-22 04:47 1.1M
20260422T00Z_MSC_GDPS_WindSpeed_IsbL-0225_LatLon0.15_PT210H.grib2 2026-04-22 04:47 1.1M
20260422T00Z_MSC_GDPS_WindSpeed_IsbL-0250_LatLon0.15_PT210H.grib2 2026-04-22 04:47 1.1M
20260422T00Z_MSC_GDPS_WindSpeed_IsbL-0275_LatLon0.15_PT210H.grib2 2026-04-22 04:47 1.1M
20260422T00Z_MSC_GDPS_WindSpeed_IsbL-0300_LatLon0.15_PT210H.grib2 2026-04-22 04:47 1.1M
20260422T00Z_MSC_GDPS_WindSpeed_IsbL-0350_LatLon0.15_PT210H.grib2 2026-04-22 04:47 1.1M
20260422T00Z_MSC_GDPS_WindSpeed_IsbL-0400_LatLon0.15_PT210H.grib2 2026-04-22 04:47 1.1M
20260422T00Z_MSC_GDPS_WindSpeed_IsbL-0450_LatLon0.15_PT210H.grib2 2026-04-22 04:47 1.1M
20260422T00Z_MSC_GDPS_WindSpeed_IsbL-0500_LatLon0.15_PT210H.grib2 2026-04-22 04:47 1.1M
20260422T00Z_MSC_GDPS_WindSpeed_IsbL-0550_LatLon0.15_PT210H.grib2 2026-04-22 04:47 1.1M
20260422T00Z_MSC_GDPS_WindSpeed_IsbL-0600_LatLon0.15_PT210H.grib2 2026-04-22 04:47 1.1M
20260422T00Z_MSC_GDPS_WindSpeed_IsbL-0650_LatLon0.15_PT210H.grib2 2026-04-22 04:47 1.2M
20260422T00Z_MSC_GDPS_WindSpeed_IsbL-0700_LatLon0.15_PT210H.grib2 2026-04-22 04:47 1.5M
20260422T00Z_MSC_GDPS_WindSpeed_IsbL-0750_LatLon0.15_PT210H.grib2 2026-04-22 04:47 1.6M
20260422T00Z_MSC_GDPS_WindSpeed_IsbL-0800_LatLon0.15_PT210H.grib2 2026-04-22 04:47 1.4M
20260422T00Z_MSC_GDPS_WindSpeed_IsbL-0850_LatLon0.15_PT210H.grib2 2026-04-22 04:47 1.5M
20260422T00Z_MSC_GDPS_WindSpeed_IsbL-0875_LatLon0.15_PT210H.grib2 2026-04-22 04:47 1.5M
20260422T00Z_MSC_GDPS_WindSpeed_IsbL-0900_LatLon0.15_PT210H.grib2 2026-04-22 04:47 1.8M
20260422T00Z_MSC_GDPS_WindSpeed_IsbL-0925_LatLon0.15_PT210H.grib2 2026-04-22 04:47 1.8M
20260422T00Z_MSC_GDPS_WindSpeed_IsbL-0950_LatLon0.15_PT210H.grib2 2026-04-22 04:47 1.9M
20260422T00Z_MSC_GDPS_WindSpeed_IsbL-0970_LatLon0.15_PT210H.grib2 2026-04-22 04:47 1.9M
20260422T00Z_MSC_GDPS_WindSpeed_IsbL-0985_LatLon0.15_PT210H.grib2 2026-04-22 04:47 1.9M
20260422T00Z_MSC_GDPS_WindSpeed_IsbL-1000_LatLon0.15_PT210H.grib2 2026-04-22 04:47 1.9M
20260422T00Z_MSC_GDPS_WindSpeed_IsbL-1015_LatLon0.15_PT210H.grib2 2026-04-22 04:47 1.8M
20260422T00Z_MSC_GDPS_WindU_AGL-10m_LatLon0.15_PT210H.grib2 2026-04-22 04:47 1.3M
20260422T00Z_MSC_GDPS_WindU_AGL-120m_LatLon0.15_PT210H.grib2 2026-04-22 04:47 1.0M
20260422T00Z_MSC_GDPS_WindU_AGL-40m_LatLon0.15_PT210H.grib2 2026-04-22 04:47 1.0M
20260422T00Z_MSC_GDPS_WindU_AGL-80m_LatLon0.15_PT210H.grib2 2026-04-22 04:47 1.0M
20260422T00Z_MSC_GDPS_WindU_IsbL-0001_LatLon0.15_PT210H.grib2 2026-04-22 04:47 642K
20260422T00Z_MSC_GDPS_WindU_IsbL-0005_LatLon0.15_PT210H.grib2 2026-04-22 04:47 684K
20260422T00Z_MSC_GDPS_WindU_IsbL-0010_LatLon0.15_PT210H.grib2 2026-04-22 04:47 695K
20260422T00Z_MSC_GDPS_WindU_IsbL-0020_LatLon0.15_PT210H.grib2 2026-04-22 04:47 649K
20260422T00Z_MSC_GDPS_WindU_IsbL-0030_LatLon0.15_PT210H.grib2 2026-04-22 04:47 730K
20260422T00Z_MSC_GDPS_WindU_IsbL-0050_LatLon0.15_PT210H.grib2 2026-04-22 04:47 692K
20260422T00Z_MSC_GDPS_WindU_IsbL-0100_LatLon0.15_PT210H.grib2 2026-04-22 04:47 923K
20260422T00Z_MSC_GDPS_WindU_IsbL-0150_LatLon0.15_PT210H.grib2 2026-04-22 04:47 1.0M
20260422T00Z_MSC_GDPS_WindU_IsbL-0175_LatLon0.15_PT210H.grib2 2026-04-22 04:47 1.0M
20260422T00Z_MSC_GDPS_WindU_IsbL-0200_LatLon0.15_PT210H.grib2 2026-04-22 04:47 852K
20260422T00Z_MSC_GDPS_WindU_IsbL-0225_LatLon0.15_PT210H.grib2 2026-04-22 04:47 862K
20260422T00Z_MSC_GDPS_WindU_IsbL-0250_LatLon0.15_PT210H.grib2 2026-04-22 04:47 862K
20260422T00Z_MSC_GDPS_WindU_IsbL-0275_LatLon0.15_PT210H.grib2 2026-04-22 04:47 889K
20260422T00Z_MSC_GDPS_WindU_IsbL-0300_LatLon0.15_PT210H.grib2 2026-04-22 04:47 879K
20260422T00Z_MSC_GDPS_WindU_IsbL-0350_LatLon0.15_PT210H.grib2 2026-04-22 04:47 890K
20260422T00Z_MSC_GDPS_WindU_IsbL-0400_LatLon0.15_PT210H.grib2 2026-04-22 04:47 891K
20260422T00Z_MSC_GDPS_WindU_IsbL-0450_LatLon0.15_PT210H.grib2 2026-04-22 04:47 890K
20260422T00Z_MSC_GDPS_WindU_IsbL-0500_LatLon0.15_PT210H.grib2 2026-04-22 04:47 1.1M
20260422T00Z_MSC_GDPS_WindU_IsbL-0550_LatLon0.15_PT210H.grib2 2026-04-22 04:47 1.1M
20260422T00Z_MSC_GDPS_WindU_IsbL-0600_LatLon0.15_PT210H.grib2 2026-04-22 04:47 1.1M
20260422T00Z_MSC_GDPS_WindU_IsbL-0650_LatLon0.15_PT210H.grib2 2026-04-22 04:47 1.2M
20260422T00Z_MSC_GDPS_WindU_IsbL-0700_LatLon0.15_PT210H.grib2 2026-04-22 04:47 1.2M
20260422T00Z_MSC_GDPS_WindU_IsbL-0750_LatLon0.15_PT210H.grib2 2026-04-22 04:47 1.3M
20260422T00Z_MSC_GDPS_WindU_IsbL-0800_LatLon0.15_PT210H.grib2 2026-04-22 04:47 1.4M
20260422T00Z_MSC_GDPS_WindU_IsbL-0850_LatLon0.15_PT210H.grib2 2026-04-22 04:47 1.4M
20260422T00Z_MSC_GDPS_WindU_IsbL-0875_LatLon0.15_PT210H.grib2 2026-04-22 04:47 1.5M
20260422T00Z_MSC_GDPS_WindU_IsbL-0900_LatLon0.15_PT210H.grib2 2026-04-22 04:47 1.5M
20260422T00Z_MSC_GDPS_WindU_IsbL-0925_LatLon0.15_PT210H.grib2 2026-04-22 04:47 1.5M
20260422T00Z_MSC_GDPS_WindU_IsbL-0950_LatLon0.15_PT210H.grib2 2026-04-22 04:47 1.5M
20260422T00Z_MSC_GDPS_WindU_IsbL-0970_LatLon0.15_PT210H.grib2 2026-04-22 04:47 1.4M
20260422T00Z_MSC_GDPS_WindU_IsbL-0985_LatLon0.15_PT210H.grib2 2026-04-22 04:47 1.4M
20260422T00Z_MSC_GDPS_WindU_IsbL-1000_LatLon0.15_PT210H.grib2 2026-04-22 04:47 1.4M
20260422T00Z_MSC_GDPS_WindU_IsbL-1015_LatLon0.15_PT210H.grib2 2026-04-22 04:47 1.4M
20260422T00Z_MSC_GDPS_WindV_AGL-10m_LatLon0.15_PT210H.grib2 2026-04-22 04:47 1.3M
20260422T00Z_MSC_GDPS_WindV_AGL-120m_LatLon0.15_PT210H.grib2 2026-04-22 04:47 1.0M
20260422T00Z_MSC_GDPS_WindV_AGL-40m_LatLon0.15_PT210H.grib2 2026-04-22 04:47 1.0M
20260422T00Z_MSC_GDPS_WindV_AGL-80m_LatLon0.15_PT210H.grib2 2026-04-22 04:47 1.0M
20260422T00Z_MSC_GDPS_WindV_IsbL-0001_LatLon0.15_PT210H.grib2 2026-04-22 04:47 669K
20260422T00Z_MSC_GDPS_WindV_IsbL-0005_LatLon0.15_PT210H.grib2 2026-04-22 04:47 756K
20260422T00Z_MSC_GDPS_WindV_IsbL-0010_LatLon0.15_PT210H.grib2 2026-04-22 04:47 786K
20260422T00Z_MSC_GDPS_WindV_IsbL-0020_LatLon0.15_PT210H.grib2 2026-04-22 04:47 843K
20260422T00Z_MSC_GDPS_WindV_IsbL-0030_LatLon0.15_PT210H.grib2 2026-04-22 04:47 928K
20260422T00Z_MSC_GDPS_WindV_IsbL-0050_LatLon0.15_PT210H.grib2 2026-04-22 04:47 1.0M
20260422T00Z_MSC_GDPS_WindV_IsbL-0100_LatLon0.15_PT210H.grib2 2026-04-22 04:47 852K
20260422T00Z_MSC_GDPS_WindV_IsbL-0150_LatLon0.15_PT210H.grib2 2026-04-22 04:47 1.0M
20260422T00Z_MSC_GDPS_WindV_IsbL-0175_LatLon0.15_PT210H.grib2 2026-04-22 04:47 1.0M
20260422T00Z_MSC_GDPS_WindV_IsbL-0200_LatLon0.15_PT210H.grib2 2026-04-22 04:47 850K
20260422T00Z_MSC_GDPS_WindV_IsbL-0225_LatLon0.15_PT210H.grib2 2026-04-22 04:47 915K
20260422T00Z_MSC_GDPS_WindV_IsbL-0250_LatLon0.15_PT210H.grib2 2026-04-22 04:47 914K
20260422T00Z_MSC_GDPS_WindV_IsbL-0275_LatLon0.15_PT210H.grib2 2026-04-22 04:47 938K
20260422T00Z_MSC_GDPS_WindV_IsbL-0300_LatLon0.15_PT210H.grib2 2026-04-22 04:47 929K
20260422T00Z_MSC_GDPS_WindV_IsbL-0350_LatLon0.15_PT210H.grib2 2026-04-22 04:47 939K
20260422T00Z_MSC_GDPS_WindV_IsbL-0400_LatLon0.15_PT210H.grib2 2026-04-22 04:47 881K
20260422T00Z_MSC_GDPS_WindV_IsbL-0450_LatLon0.15_PT210H.grib2 2026-04-22 04:47 879K
20260422T00Z_MSC_GDPS_WindV_IsbL-0500_LatLon0.15_PT210H.grib2 2026-04-22 04:47 1.1M
20260422T00Z_MSC_GDPS_WindV_IsbL-0550_LatLon0.15_PT210H.grib2 2026-04-22 04:47 1.1M
20260422T00Z_MSC_GDPS_WindV_IsbL-0600_LatLon0.15_PT210H.grib2 2026-04-22 04:47 1.1M
20260422T00Z_MSC_GDPS_WindV_IsbL-0650_LatLon0.15_PT210H.grib2 2026-04-22 04:47 1.2M
20260422T00Z_MSC_GDPS_WindV_IsbL-0700_LatLon0.15_PT210H.grib2 2026-04-22 04:47 1.2M
20260422T00Z_MSC_GDPS_WindV_IsbL-0750_LatLon0.15_PT210H.grib2 2026-04-22 04:47 1.3M
20260422T00Z_MSC_GDPS_WindV_IsbL-0800_LatLon0.15_PT210H.grib2 2026-04-22 04:47 1.4M
20260422T00Z_MSC_GDPS_WindV_IsbL-0850_LatLon0.15_PT210H.grib2 2026-04-22 04:47 1.4M
20260422T00Z_MSC_GDPS_WindV_IsbL-0875_LatLon0.15_PT210H.grib2 2026-04-22 04:47 1.5M
20260422T00Z_MSC_GDPS_WindV_IsbL-0900_LatLon0.15_PT210H.grib2 2026-04-22 04:47 1.5M
20260422T00Z_MSC_GDPS_WindV_IsbL-0925_LatLon0.15_PT210H.grib2 2026-04-22 04:47 1.5M
20260422T00Z_MSC_GDPS_WindV_IsbL-0950_LatLon0.15_PT210H.grib2 2026-04-22 04:47 1.4M
20260422T00Z_MSC_GDPS_WindV_IsbL-0970_LatLon0.15_PT210H.grib2 2026-04-22 04:47 1.4M
20260422T00Z_MSC_GDPS_WindV_IsbL-0985_LatLon0.15_PT210H.grib2 2026-04-22 04:47 1.4M
20260422T00Z_MSC_GDPS_WindV_IsbL-1000_LatLon0.15_PT210H.grib2 2026-04-22 04:47 1.4M
20260422T00Z_MSC_GDPS_WindV_IsbL-1015_LatLon0.15_PT210H.grib2 2026-04-22 04:47 1.4M